Time,TemperatureF,DewpointF,PressureIn,WindDirection,WindDirectionDegrees,WindSpeedMPH,WindSpeedGustMPH,Humidity,HourlyPrecipIn,Conditions,Clouds,dailyrainin,SoftwareType,DateUTC
2013-05-05 00:00:00,41.5,27.8,30.22,East,85,0.0,0.0,58,0.00,,CLR,0.00,VWS V14.01,2013-05-05 04:00:00,
2013-05-05 00:01:00,41.5,27.8,30.22,East,85,0.0,0.0,58,0.00,,CLR,0.00,VWS V14.01,2013-05-05 04:01:00,
2013-05-05 00:02:00,41.3,27.6,30.22,East,85,0.0,0.0,58,0.00,,CLR,0.00,VWS V14.01,2013-05-05 04:02:00,
2013-05-05 00:04:00,41.2,28.0,30.22,East,85,0.0,0.0,59,0.00,,CLR,0.00,VWS V14.01,2013-05-05 04:04:00,
2013-05-05 00:09:00,41.1,27.9,30.22,East,85,0.0,0.0,59,0.00,,CLR,0.00,VWS V14.01,2013-05-05 04:09:00,
2013-05-05 00:14:00,40.8,27.6,30.22,East,85,0.0,0.0,59,0.00,,CLR,0.00,VWS V14.01,2013-05-05 04:14:00,
2013-05-05 00:19:00,40.5,27.3,30.22,East,85,0.0,0.0,59,0.00,,CLR,0.00,VWS V14.01,2013-05-05 04:19:00,
2013-05-05 00:24:00,40.2,27.0,30.22,East,85,0.0,0.0,59,0.00,,CLR,0.00,VWS V14.01,2013-05-05 04:24:00,
2013-05-05 00:29:00,39.9,27.2,30.22,East,85,0.0,0.0,60,0.00,,CLR,0.00,VWS V14.01,2013-05-05 04:29:00,
2013-05-05 00:34:00,39.6,27.3,30.22,East,85,0.0,0.0,61,0.00,,CLR,0.00,VWS V14.01,2013-05-05 04:34:00,
2013-05-05 00:39:00,39.5,27.6,30.22,East,85,0.0,0.0,62,0.00,,CLR,0.00,VWS V14.01,2013-05-05 04:39:00,
2013-05-05 00:44:00,39.2,27.7,30.22,East,85,0.0,0.0,63,0.00,,CLR,0.00,VWS V14.01,2013-05-05 04:44:00,
2013-05-05 00:49:00,39.1,27.6,30.22,East,85,0.0,0.0,63,0.00,,CLR,0.00,VWS V14.01,2013-05-05 04:49:00,
2013-05-05 00:54:00,38.8,27.3,30.22,East,85,0.0,0.0,63,0.00,,CLR,0.00,VWS V14.01,2013-05-05 04:54:00,
2013-05-05 00:59:00,38.6,27.1,30.22,East,85,0.0,0.0,63,0.00,,CLR,0.00,VWS V14.01,2013-05-05 04:59:00,
2013-05-05 01:04:00,38.3,26.8,30.23,East,85,0.0,0.0,63,0.00,,CLR,0.00,VWS V14.01,2013-05-05 05:04:00,
2013-05-05 01:09:00,38.2,27.1,30.23,East,85,0.0,0.0,64,0.00,,CLR,0.00,VWS V14.01,2013-05-05 05:09:00,
2013-05-05 01:14:00,38.0,26.9,30.23,East,85,0.0,0.0,64,0.00,,CLR,0.00,VWS V14.01,2013-05-05 05:14:00,
2013-05-05 01:20:00,37.8,26.7,30.23,East,85,0.0,0.0,64,0.00,,CLR,0.00,VWS V14.01,2013-05-05 05:20:00,
2013-05-05 01:25:00,37.5,26.5,30.23,East,85,0.0,0.0,64,0.00,,CLR,0.00,VWS V14.01,2013-05-05 05:25:00,
2013-05-05 01:30:00,37.3,26.3,30.23,East,85,0.0,0.0,64,0.00,,CLR,0.00,VWS V14.01,2013-05-05 05:30:00,
2013-05-05 01:35:00,37.0,26.0,30.22,East,85,0.0,0.0,64,0.00,,CLR,0.00,VWS V14.01,2013-05-05 05:35:00,
2013-05-05 01:40:00,36.8,25.8,30.22,East,85,0.0,0.0,64,0.00,,CLR,0.00,VWS V14.01,2013-05-05 05:40:00,
2013-05-05 01:45:00,36.5,25.5,30.22,East,85,0.0,0.0,64,0.00,,CLR,0.00,VWS V14.01,2013-05-05 05:45:00,
2013-05-05 01:50:00,36.3,26.0,30.22,East,85,0.0,0.0,66,0.00,,CLR,0.00,VWS V14.01,2013-05-05 05:50:00,
2013-05-05 01:55:00,36.2,26.0,30.22,East,85,0.0,0.0,66,0.00,,CLR,0.00,VWS V14.01,2013-05-05 05:55:00,
2013-05-05 02:00:00,35.9,25.7,30.22,East,85,0.0,0.0,66,0.00,,CLR,0.00,VWS V14.01,2013-05-05 06:00:00,
2013-05-05 02:05:00,35.8,25.9,30.22,East,85,0.0,0.0,67,0.00,,CLR,0.00,VWS V14.01,2013-05-05 06:05:00,
2013-05-05 02:10:00,35.6,25.7,30.22,East,85,0.0,0.0,67,0.00,,CLR,0.00,VWS V14.01,2013-05-05 06:10:00,
2013-05-05 02:15:00,35.3,25.1,30.22,East,85,0.0,0.0,66,0.00,,CLR,0.00,VWS V14.01,2013-05-05 06:15:00,
2013-05-05 02:20:00,35.2,25.4,30.22,East,85,0.0,0.0,67,0.00,,CLR,0.00,VWS V14.01,2013-05-05 06:20:00,
2013-05-05 02:25:00,34.9,25.1,30.22,East,85,0.0,0.0,67,0.00,,CLR,0.00,VWS V14.01,2013-05-05 06:25:00,
2013-05-05 02:30:00,34.7,25.2,30.22,East,85,0.0,0.0,68,0.00,,CLR,0.00,VWS V14.01,2013-05-05 06:30:00,
2013-05-05 02:35:00,34.6,25.1,30.22,East,85,0.0,0.0,68,0.00,,CLR,0.00,VWS V14.01,2013-05-05 06:35:00,
2013-05-05 02:40:00,34.4,25.3,30.22,East,85,0.0,0.0,69,0.00,,CLR,0.00,VWS V14.01,2013-05-05 06:40:00,
2013-05-05 02:45:00,34.3,25.2,30.22,East,85,0.0,0.0,69,0.00,,CLR,0.00,VWS V14.01,2013-05-05 06:45:00,
2013-05-05 02:50:00,34.1,25.4,30.22,East,85,0.0,0.0,70,0.00,,CLR,0.00,VWS V14.01,2013-05-05 06:50:00,
2013-05-05 02:56:00,34.1,25.4,30.22,East,85,0.0,0.0,70,0.00,,CLR,0.00,VWS V14.01,2013-05-05 06:56:00,
2013-05-05 03:01:00,33.8,25.1,30.22,East,85,0.0,0.0,70,0.00,,CLR,0.00,VWS V14.01,2013-05-05 07:01:00,
2013-05-05 03:06:00,33.7,25.3,30.22,East,85,0.0,0.0,71,0.00,,CLR,0.00,VWS V14.01,2013-05-05 07:06:00,
2013-05-05 03:11:00,33.5,24.8,30.22,East,85,0.0,0.0,70,0.00,,CLR,0.00,VWS V14.01,2013-05-05 07:11:00,
2013-05-05 03:16:00,33.4,25.0,30.22,East,85,0.0,0.0,71,0.00,,CLR,0.00,VWS V14.01,2013-05-05 07:16:00,
2013-05-05 03:21:00,33.2,24.8,30.22,East,85,0.0,0.0,71,0.00,,CLR,0.00,VWS V14.01,2013-05-05 07:21:00,
2013-05-05 03:26:00,33.1,25.1,30.22,East,85,0.0,0.0,72,0.00,,CLR,0.00,VWS V14.01,2013-05-05 07:26:00,
2013-05-05 03:31:00,33.1,25.1,30.22,East,85,0.0,0.0,72,0.00,,CLR,0.00,VWS V14.01,2013-05-05 07:31:00,
2013-05-05 03:36:00,32.9,25.2,30.22,East,85,0.0,0.0,73,0.00,,CLR,0.00,VWS V14.01,2013-05-05 07:36:00,
2013-05-05 03:41:00,32.8,25.1,30.22,East,85,0.0,0.0,73,0.00,,CLR,0.00,VWS V14.01,2013-05-05 07:41:00,
2013-05-05 03:46:00,32.7,25.3,30.22,East,85,0.0,0.0,74,0.00,,CLR,0.00,VWS V14.01,2013-05-05 07:46:00,
2013-05-05 03:51:00,32.5,25.1,30.22,East,85,0.0,0.0,74,0.00,,CLR,0.00,VWS V14.01,2013-05-05 07:51:00,
2013-05-05 03:56:00,32.4,25.0,30.22,East,85,0.0,0.0,74,0.00,,CLR,0.00,VWS V14.01,2013-05-05 07:56:00,
2013-05-05 04:01:00,32.2,25.2,30.22,East,85,0.0,0.0,75,0.00,,CLR,0.00,VWS V14.01,2013-05-05 08:01:00,
2013-05-05 04:06:00,32.1,25.1,30.22,East,85,0.0,0.0,75,0.00,,CLR,0.00,VWS V14.01,2013-05-05 08:06:00,
2013-05-05 04:11:00,31.9,24.9,30.22,East,85,0.0,0.0,75,0.00,,CLR,0.00,VWS V14.01,2013-05-05 08:11:00,
2013-05-05 04:16:00,31.9,24.9,30.22,East,85,0.0,0.0,75,0.00,,CLR,0.00,VWS V14.01,2013-05-05 08:16:00,
2013-05-05 04:21:00,31.8,25.1,30.22,East,85,0.0,0.0,76,0.00,,CLR,0.00,VWS V14.01,2013-05-05 08:21:00,
2013-05-05 04:26:00,31.6,24.9,30.22,East,85,0.0,0.0,76,0.00,,CLR,0.00,VWS V14.01,2013-05-05 08:26:00,
2013-05-05 04:32:00,31.5,24.8,30.22,East,85,0.0,0.0,76,0.00,,CLR,0.00,VWS V14.01,2013-05-05 08:32:00,
2013-05-05 04:37:00,31.3,24.6,30.22,East,85,0.0,0.0,76,0.00,,CLR,0.00,VWS V14.01,2013-05-05 08:37:00,
2013-05-05 04:42:00,31.2,24.5,30.22,East,85,0.0,0.0,76,0.00,,CLR,0.00,VWS V14.01,2013-05-05 08:42:00,
2013-05-05 04:47:00,31.2,24.8,30.21,East,85,0.0,0.0,77,0.00,,CLR,0.00,VWS V14.01,2013-05-05 08:47:00,
2013-05-05 04:52:00,31.0,25.0,30.21,East,85,0.0,0.0,78,0.00,,CLR,0.00,VWS V14.01,2013-05-05 08:52:00,
2013-05-05 04:57:00,30.9,24.9,30.21,East,85,0.0,0.0,78,0.00,,CLR,0.00,VWS V14.01,2013-05-05 08:57:00,
2013-05-05 05:02:00,30.9,24.9,30.21,East,85,0.0,0.0,78,0.00,,CLR,0.00,VWS V14.01,2013-05-05 09:02:00,
2013-05-05 05:07:00,30.7,25.0,30.21,East,85,0.0,0.0,79,0.00,,CLR,0.00,VWS V14.01,2013-05-05 09:07:00,
2013-05-05 05:12:00,30.6,24.9,30.21,East,85,0.0,0.0,79,0.00,,CLR,0.00,VWS V14.01,2013-05-05 09:12:00,
2013-05-05 05:17:00,30.6,24.9,30.22,East,85,0.0,0.0,79,0.00,,CLR,0.00,VWS V14.01,2013-05-05 09:17:00,
2013-05-05 05:22:00,30.4,24.7,30.22,East,85,0.0,0.0,79,0.00,,CLR,0.00,VWS V14.01,2013-05-05 09:22:00,
2013-05-05 05:27:00,30.3,24.6,30.22,East,85,0.0,0.0,79,0.00,,CLR,0.00,VWS V14.01,2013-05-05 09:27:00,
2013-05-05 05:32:00,30.1,24.4,30.22,East,85,0.0,0.0,79,0.00,,CLR,0.00,VWS V14.01,2013-05-05 09:32:00,
2013-05-05 05:37:00,30.0,24.3,30.22,East,85,0.0,0.0,79,0.00,,CLR,0.00,VWS V14.01,2013-05-05 09:37:00,
2013-05-05 05:42:00,30.0,24.6,30.22,East,85,0.0,0.0,80,0.00,,CLR,0.00,VWS V14.01,2013-05-05 09:42:00,
2013-05-05 05:47:00,30.0,24.6,30.22,East,85,0.0,0.0,80,0.00,,CLR,0.00,VWS V14.01,2013-05-05 09:47:00,
2013-05-05 05:52:00,29.8,24.7,30.22,East,85,0.0,0.0,81,0.00,,CLR,0.00,VWS V14.01,2013-05-05 09:52:00,
2013-05-05 05:57:00,29.8,24.7,30.22,East,85,0.0,0.0,81,0.00,,CLR,0.00,VWS V14.01,2013-05-05 09:57:00,
2013-05-05 06:03:00,29.8,24.7,30.22,East,85,0.0,0.0,81,0.00,,CLR,0.00,VWS V14.01,2013-05-05 10:03:00,
2013-05-05 06:08:00,29.8,25.0,30.22,East,85,0.0,0.0,82,0.00,,CLR,0.00,VWS V14.01,2013-05-05 10:08:00,
2013-05-05 06:13:00,29.7,24.9,30.22,East,85,0.0,0.0,82,0.00,,CLR,0.00,VWS V14.01,2013-05-05 10:13:00,
2013-05-05 06:18:00,29.7,24.9,30.23,East,85,0.0,0.0,82,0.00,,CLR,0.00,VWS V14.01,2013-05-05 10:18:00,
2013-05-05 06:23:00,29.7,24.9,30.23,East,85,0.0,0.0,82,0.00,,CLR,0.00,VWS V14.01,2013-05-05 10:23:00,
2013-05-05 06:28:00,29.8,25.3,30.23,East,85,0.0,0.0,83,0.00,,CLR,0.00,VWS V14.01,2013-05-05 10:28:00,
2013-05-05 06:33:00,30.0,25.8,30.23,East,85,0.0,0.0,84,0.00,,CLR,0.00,VWS V14.01,2013-05-05 10:33:00,
2013-05-05 06:38:00,30.3,26.1,30.23,East,85,0.0,0.0,84,0.00,,CLR,0.00,VWS V14.01,2013-05-05 10:38:00,
2013-05-05 06:43:00,30.7,26.7,30.23,East,85,0.0,0.0,85,0.00,,CLR,0.00,VWS V14.01,2013-05-05 10:43:00,
2013-05-05 06:48:00,31.2,27.2,30.23,East,85,0.0,0.0,85,0.00,,CLR,0.00,VWS V14.01,2013-05-05 10:48:00,
2013-05-05 06:53:00,31.6,27.9,30.23,East,85,0.0,0.0,86,0.00,,CLR,0.00,VWS V14.01,2013-05-05 10:53:00,
2013-05-05 06:58:00,32.1,28.7,30.23,East,85,0.0,0.0,87,0.00,,CLR,0.00,VWS V14.01,2013-05-05 10:58:00,
2013-05-05 07:03:00,32.4,29.0,30.23,East,85,0.0,0.0,87,0.00,,CLR,0.00,VWS V14.01,2013-05-05 11:03:00,
2013-05-05 07:08:00,32.7,29.3,30.23,East,85,0.0,0.0,87,0.00,,CLR,0.00,VWS V14.01,2013-05-05 11:08:00,
2013-05-05 07:13:00,32.9,29.5,30.23,East,85,0.0,0.0,87,0.00,,CLR,0.00,VWS V14.01,2013-05-05 11:13:00,
2013-05-05 07:19:00,33.2,29.8,30.24,East,85,0.0,0.0,87,0.00,,CLR,0.00,VWS V14.01,2013-05-05 11:19:00,
2013-05-05 07:24:00,33.7,30.2,30.24,East,85,0.0,1.0,87,0.00,,CLR,0.00,VWS V14.01,2013-05-05 11:24:00,
2013-05-05 07:29:00,34.1,30.9,30.24,East,85,0.0,0.0,88,0.00,,CLR,0.00,VWS V14.01,2013-05-05 11:29:00,
2013-05-05 07:34:00,34.9,31.7,30.23,East,85,0.0,0.0,88,0.00,,CLR,0.00,VWS V14.01,2013-05-05 11:34:00,
2013-05-05 07:39:00,35.8,32.6,30.23,East,85,0.0,0.0,88,0.00,,CLR,0.00,VWS V14.01,2013-05-05 11:39:00,
2013-05-05 07:44:00,36.6,33.4,30.23,East,85,0.0,0.0,88,0.00,,CLR,0.00,VWS V14.01,2013-05-05 11:44:00,
2013-05-05 07:49:00,37.5,34.0,30.23,East,85,0.0,0.0,87,0.00,,CLR,0.00,VWS V14.01,2013-05-05 11:49:00,
2013-05-05 07:54:00,38.5,35.3,30.23,East,85,1.0,1.0,88,0.00,,CLR,0.00,VWS V14.01,2013-05-05 11:54:00,
2013-05-05 07:59:00,39.5,36.0,30.23,East,85,0.0,2.0,87,0.00,,CLR,0.00,VWS V14.01,2013-05-05 11:59:00,
2013-05-05 08:04:00,40.5,36.3,30.23,East,85,0.0,0.0,85,0.00,,CLR,0.00,VWS V14.01,2013-05-05 12:04:00,
2013-05-05 08:09:00,41.3,36.8,30.23,East,85,2.0,2.0,84,0.00,,CLR,0.00,VWS V14.01,2013-05-05 12:09:00,
2013-05-05 08:14:00,42.3,37.2,30.23,East,85,0.0,0.0,82,0.00,,CLR,0.00,VWS V14.01,2013-05-05 12:14:00,
2013-05-05 08:19:00,43.3,37.9,30.23,ENE,58,5.0,5.0,81,0.00,,CLR,0.00,VWS V14.01,2013-05-05 12:19:00,
2013-05-05 08:24:00,44.3,37.9,30.23,North,0,0.0,2.0,78,0.00,,CLR,0.00,VWS V14.01,2013-05-05 12:24:00,
2013-05-05 08:29:00,45.2,37.4,30.23,NNE,30,1.0,2.0,74,0.00,,CLR,0.00,VWS V14.01,2013-05-05 12:29:00,
2013-05-05 08:34:00,46.2,37.0,30.23,NNE,14,3.0,6.0,70,0.00,,CLR,0.00,VWS V14.01,2013-05-05 12:34:00,
2013-05-05 08:39:00,47.1,37.5,30.23,ENE,66,0.0,1.0,69,0.00,,CLR,0.00,VWS V14.01,2013-05-05 12:39:00,
2013-05-05 08:44:00,48.0,37.2,30.23,NE,35,0.0,0.0,66,0.00,,CLR,0.00,VWS V14.01,2013-05-05 12:44:00,
2013-05-05 08:49:00,48.8,36.8,30.23,SW,232,0.0,1.0,63,0.00,,CLR,0.00,VWS V14.01,2013-05-05 12:49:00,
2013-05-05 08:55:00,49.4,36.5,30.23,WNW,292,0.0,3.0,61,0.00,,CLR,0.00,VWS V14.01,2013-05-05 12:55:00,
2013-05-05 09:00:00,49.9,37.4,30.23,North,3,0.0,3.0,62,0.00,,CLR,0.00,VWS V14.01,2013-05-05 13:00:00,
2013-05-05 09:05:00,50.5,37.2,30.22,ENE,61,3.0,3.0,60,0.00,,CLR,0.00,VWS V14.01,2013-05-05 13:05:00,
2013-05-05 09:10:00,51.4,37.1,30.22,SSE,157,0.0,5.0,58,0.00,,CLR,0.00,VWS V14.01,2013-05-05 13:10:00,
2013-05-05 09:15:00,52.2,37.9,30.22,NE,42,2.0,5.0,58,0.00,,CLR,0.00,VWS V14.01,2013-05-05 13:15:00,
2013-05-05 09:20:00,52.6,36.9,30.22,NE,34,0.0,3.0,55,0.00,,CLR,0.00,VWS V14.01,2013-05-05 13:20:00,
2013-05-05 09:25:00,53.2,36.5,30.22,North,1,1.0,4.0,53,0.00,,CLR,0.00,VWS V14.01,2013-05-05 13:25:00,
2013-05-05 09:30:00,53.6,36.4,30.22,East,88,0.0,4.0,52,0.00,,CLR,0.00,VWS V14.01,2013-05-05 13:30:00,
2013-05-05 09:35:00,54.2,37.0,30.22,NNE,13,5.0,6.0,52,0.00,,CLR,0.00,VWS V14.01,2013-05-05 13:35:00,
2013-05-05 09:40:00,54.7,36.9,30.22,SE,145,0.0,3.0,51,0.00,,CLR,0.00,VWS V14.01,2013-05-05 13:40:00,
2013-05-05 09:45:00,55.1,36.3,30.21,SE,124,0.0,1.0,49,0.00,,CLR,0.00,VWS V14.01,2013-05-05 13:45:00,
2013-05-05 09:50:00,55.7,36.8,30.21,NE,35,1.0,6.0,49,0.00,,CLR,0.00,VWS V14.01,2013-05-05 13:50:00,
2013-05-05 09:55:00,56.0,37.6,30.21,North,10,0.0,5.0,50,0.00,,CLR,0.00,VWS V14.01,2013-05-05 13:55:00,
2013-05-05 10:00:00,56.6,38.2,30.21,North,0,2.0,2.0,50,0.00,,CLR,0.00,VWS V14.01,2013-05-05 14:00:00,
2013-05-05 10:05:00,56.9,38.0,30.21,SE,134,3.0,10.0,49,0.00,,CLR,0.00,VWS V14.01,2013-05-05 14:05:00,
2013-05-05 10:10:00,56.9,36.9,30.21,SE,145,2.0,3.0,47,0.00,,CLR,0.00,VWS V14.01,2013-05-05 14:10:00,
2013-05-05 10:15:00,57.2,38.2,30.21,ENE,59,3.0,7.0,49,0.00,,CLR,0.00,VWS V14.01,2013-05-05 14:15:00,
2013-05-05 10:21:00,57.3,37.8,30.21,East,96,5.0,6.0,48,0.00,,CLR,0.00,VWS V14.01,2013-05-05 14:21:00,
2013-05-05 10:26:00,57.8,38.8,30.21,ESE,109,1.0,5.0,49,0.00,,CLR,0.00,VWS V14.01,2013-05-05 14:26:00,
2013-05-05 10:31:00,58.0,37.4,30.20,ENE,73,2.0,5.0,46,0.00,,CLR,0.00,VWS V14.01,2013-05-05 14:31:00,
2013-05-05 10:36:00,58.4,38.8,30.20,South,174,0.0,5.0,48,0.00,,CLR,0.00,VWS V14.01,2013-05-05 14:36:00,
2013-05-05 10:41:00,59.0,38.3,30.20,SSW,213,0.0,2.0,46,0.00,,CLR,0.00,VWS V14.01,2013-05-05 14:41:00,
2013-05-05 10:46:00,59.2,37.9,30.20,East,95,0.0,3.0,45,0.00,,CLR,0.00,VWS V14.01,2013-05-05 14:46:00,
2013-05-05 10:51:00,59.5,38.7,30.20,NNE,28,1.0,2.0,46,0.00,,CLR,0.00,VWS V14.01,2013-05-05 14:51:00,
2013-05-05 10:56:00,59.5,37.0,30.20,WNW,298,1.0,5.0,43,0.00,,CLR,0.00,VWS V14.01,2013-05-05 14:56:00,
2013-05-05 11:01:00,59.8,37.3,30.20,NNE,17,0.0,3.0,43,0.00,,CLR,0.00,VWS V14.01,2013-05-05 15:01:00,
2013-05-05 11:06:00,59.9,36.8,30.20,West,261,3.0,6.0,42,0.00,,CLR,0.00,VWS V14.01,2013-05-05 15:06:00,
2013-05-05 11:11:00,59.9,37.4,30.20,NNE,24,0.0,2.0,43,0.00,,CLR,0.00,VWS V14.01,2013-05-05 15:11:00,
2013-05-05 11:16:00,60.4,37.2,30.19,NNW,333,2.0,5.0,42,0.00,,CLR,0.00,VWS V14.01,2013-05-05 15:16:00,
2013-05-05 11:21:00,60.2,37.6,30.19,South,176,5.0,5.0,43,0.00,,CLR,0.00,VWS V14.01,2013-05-05 15:21:00,
2013-05-05 11:26:00,61.0,37.2,30.19,SSE,151,3.0,5.0,41,0.00,,CLR,0.00,VWS V14.01,2013-05-05 15:26:00,
2013-05-05 11:31:00,61.3,36.8,30.19,WSW,257,0.0,2.0,40,0.00,,CLR,0.00,VWS V14.01,2013-05-05 15:31:00,
2013-05-05 11:36:00,62.0,37.4,30.19,NE,37,2.0,3.0,40,0.00,,CLR,0.00,VWS V14.01,2013-05-05 15:36:00,
2013-05-05 11:41:00,61.8,36.6,30.19,East,88,0.0,6.0,39,0.00,,CLR,0.00,VWS V14.01,2013-05-05 15:41:00,
2013-05-05 11:47:00,62.4,39.6,30.18,North,354,6.0,7.0,43,0.00,,CLR,0.00,VWS V14.01,2013-05-05 15:47:00,
2013-05-05 11:52:00,63.1,39.0,30.18,East,96,0.0,0.0,41,0.00,,CLR,0.00,VWS V14.01,2013-05-05 15:52:00,
2013-05-05 11:57:00,63.9,39.8,30.18,North,0,3.0,3.0,41,0.00,,CLR,0.00,VWS V14.01,2013-05-05 15:57:00,
2013-05-05 12:02:00,63.9,37.8,30.17,SE,140,3.0,3.0,38,0.00,,CLR,0.00,VWS V14.01,2013-05-05 16:02:00,
2013-05-05 12:07:00,64.5,39.0,30.17,South,185,1.0,6.0,39,0.00,,CLR,0.00,VWS V14.01,2013-05-05 16:07:00,
2013-05-05 12:12:00,64.8,35.8,30.17,SSW,206,4.0,6.0,34,0.00,,CLR,0.00,VWS V14.01,2013-05-05 16:12:00,
2013-05-05 12:17:00,65.0,36.7,30.17,SSE,168,0.0,8.0,35,0.00,,CLR,0.00,VWS V14.01,2013-05-05 16:17:00,
2013-05-05 12:22:00,65.2,36.9,30.17,East,83,1.0,5.0,35,0.00,,CLR,0.00,VWS V14.01,2013-05-05 16:22:00,
2013-05-05 12:27:00,66.0,37.6,30.17,NE,56,6.0,8.0,35,0.00,,CLR,0.00,VWS V14.01,2013-05-05 16:27:00,
2013-05-05 12:32:00,66.4,37.2,30.16,South,185,0.0,2.0,34,0.00,,CLR,0.00,VWS V14.01,2013-05-05 16:32:00,
2013-05-05 12:37:00,67.1,37.1,30.16,NE,56,5.0,9.0,33,0.00,,CLR,0.00,VWS V14.01,2013-05-05 16:37:00,
2013-05-05 12:42:00,66.6,35.8,30.16,NNW,340,0.0,5.0,32,0.00,,CLR,0.00,VWS V14.01,2013-05-05 16:42:00,
2013-05-05 12:47:00,66.9,36.9,30.16,ESE,117,0.0,4.0,33,0.00,,CLR,0.00,VWS V14.01,2013-05-05 16:47:00,
2013-05-05 12:52:00,67.3,36.5,30.16,NE,54,1.0,13.0,32,0.00,,CLR,0.00,VWS V14.01,2013-05-05 16:52:00,
2013-05-05 12:57:00,67.3,37.2,30.16,North,0,0.0,6.0,33,0.00,,CLR,0.00,VWS V14.01,2013-05-05 16:57:00,
2013-05-05 13:02:00,67.3,37.2,30.16,East,93,6.0,10.0,33,0.00,,CLR,0.00,VWS V14.01,2013-05-05 17:02:00,
2013-05-05 13:07:00,67.3,38.0,30.16,ENE,73,7.0,7.0,34,0.00,,CLR,0.00,VWS V14.01,2013-05-05 17:07:00,
2013-05-05 13:12:00,67.4,37.3,30.16,East,90,1.0,7.0,33,0.00,,CLR,0.00,VWS V14.01,2013-05-05 17:12:00,
2013-05-05 13:18:00,68.1,37.2,30.16,South,191,0.0,7.0,32,0.00,,CLR,0.00,VWS V14.01,2013-05-05 17:18:00,
2013-05-05 13:23:00,68.6,35.1,30.16,ESE,104,5.0,6.0,29,0.00,,CLR,0.00,VWS V14.01,2013-05-05 17:23:00,
2013-05-05 13:28:00,68.6,37.6,30.16,SSW,199,0.0,1.0,32,0.00,,CLR,0.00,VWS V14.01,2013-05-05 17:28:00,
2013-05-05 13:33:00,68.3,37.3,30.15,East,88,3.0,3.0,32,0.00,,CLR,0.00,VWS V14.01,2013-05-05 17:33:00,
2013-05-05 13:38:00,68.9,37.0,30.15,ESE,119,5.0,13.0,31,0.00,,CLR,0.00,VWS V14.01,2013-05-05 17:38:00,
2013-05-05 13:43:00,68.9,34.5,30.15,ENE,68,5.0,7.0,28,0.00,,CLR,0.00,VWS V14.01,2013-05-05 17:43:00,
2013-05-05 13:48:00,68.9,34.5,30.16,South,174,0.0,6.0,28,0.00,,CLR,0.00,VWS V14.01,2013-05-05 17:48:00,
2013-05-05 13:53:00,68.8,33.5,30.16,South,174,0.0,7.0,27,0.00,,CLR,0.00,VWS V14.01,2013-05-05 17:53:00,
2013-05-05 13:58:00,69.3,35.7,30.16,South,169,0.0,7.0,29,0.00,,CLR,0.00,VWS V14.01,2013-05-05 17:58:00,
2013-05-05 14:03:00,70.1,34.6,30.15,NE,55,2.0,11.0,27,0.00,,CLR,0.00,VWS V14.01,2013-05-05 18:03:00,
2013-05-05 14:08:00,70.4,34.9,30.15,ESE,109,5.0,6.0,27,0.00,,CLR,0.00,VWS V14.01,2013-05-05 18:08:00,
2013-05-05 14:13:00,70.4,35.8,30.15,SSE,161,2.0,6.0,28,0.00,,CLR,0.00,VWS V14.01,2013-05-05 18:13:00,
2013-05-05 14:18:00,70.4,36.7,30.15,NE,49,2.0,13.0,29,0.00,,CLR,0.00,VWS V14.01,2013-05-05 18:18:00,
2013-05-05 14:23:00,70.3,34.8,30.15,ENE,76,2.0,7.0,27,0.00,,CLR,0.00,VWS V14.01,2013-05-05 18:23:00,
2013-05-05 14:28:00,70.3,34.8,30.15,ENE,59,1.0,5.0,27,0.00,,CLR,0.00,VWS V14.01,2013-05-05 18:28:00,
2013-05-05 14:33:00,70.4,34.9,30.14,East,96,3.0,7.0,27,0.00,,CLR,0.00,VWS V14.01,2013-05-05 18:33:00,
2013-05-05 14:39:00,70.4,34.9,30.14,ENE,68,4.0,11.0,27,0.00,,CLR,0.00,VWS V14.01,2013-05-05 18:39:00,
2013-05-05 14:44:00,70.8,35.2,30.14,ENE,62,0.0,6.0,27,0.00,,CLR,0.00,VWS V14.01,2013-05-05 18:44:00,
2013-05-05 14:49:00,70.8,36.1,30.14,NNE,16,4.0,6.0,28,0.00,,CLR,0.00,VWS V14.01,2013-05-05 18:49:00,
2013-05-05 14:54:00,70.9,35.3,30.14,ESE,112,2.0,4.0,27,0.00,,CLR,0.00,VWS V14.01,2013-05-05 18:54:00,
2013-05-05 14:59:00,71.1,35.5,30.14,ESE,121,0.0,8.0,27,0.00,,CLR,0.00,VWS V14.01,2013-05-05 18:59:00,
2013-05-05 15:04:00,71.3,37.4,30.13,ESE,109,0.0,6.0,29,0.00,,CLR,0.00,VWS V14.01,2013-05-05 19:04:00,
2013-05-05 15:09:00,71.5,37.6,30.13,East,88,6.0,7.0,29,0.00,,CLR,0.00,VWS V14.01,2013-05-05 19:09:00,
2013-05-05 15:14:00,71.6,36.8,30.13,East,88,3.0,12.0,28,0.00,,CLR,0.00,VWS V14.01,2013-05-05 19:14:00,
2013-05-05 15:19:00,71.5,32.8,30.13,ENE,65,3.0,6.0,24,0.00,,CLR,0.00,VWS V14.01,2013-05-05 19:19:00,
2013-05-05 15:24:00,71.1,31.5,30.13,SE,124,0.0,5.0,23,0.00,,CLR,0.00,VWS V14.01,2013-05-05 19:24:00,
2013-05-05 15:29:00,71.1,35.5,30.13,North,359,0.0,4.0,27,0.00,,CLR,0.00,VWS V14.01,2013-05-05 19:29:00,
2013-05-05 15:34:00,71.1,35.5,30.12,North,8,5.0,10.0,27,0.00,,CLR,0.00,VWS V14.01,2013-05-05 19:34:00,
2013-05-05 15:39:00,70.9,34.3,30.12,ESE,104,7.0,14.0,26,0.00,,CLR,0.00,VWS V14.01,2013-05-05 19:39:00,
2013-05-05 15:44:00,70.9,36.2,30.12,East,90,5.0,6.0,28,0.00,,CLR,0.00,VWS V14.01,2013-05-05 19:44:00,
2013-05-05 15:49:00,71.3,36.5,30.12,East,90,0.0,5.0,28,0.00,,CLR,0.00,VWS V14.01,2013-05-05 19:49:00,
2013-05-05 15:54:00,71.6,35.9,30.12,ESE,117,3.0,8.0,27,0.00,,CLR,0.00,VWS V14.01,2013-05-05 19:54:00,
2013-05-05 15:59:00,71.6,34.9,30.12,North,0,0.0,4.0,26,0.00,,CLR,0.00,VWS V14.01,2013-05-05 19:59:00,
2013-05-05 16:04:00,71.6,37.7,30.12,North,354,0.0,2.0,29,0.00,,CLR,0.00,VWS V14.01,2013-05-05 20:04:00,
2013-05-05 16:10:00,71.6,36.8,30.12,ENE,71,7.0,12.0,28,0.00,,CLR,0.00,VWS V14.01,2013-05-05 20:10:00,
2013-05-05 16:15:00,71.6,36.8,30.12,North,350,0.0,5.0,28,0.00,,CLR,0.00,VWS V14.01,2013-05-05 20:15:00,
2013-05-05 16:20:00,71.5,37.6,30.11,East,79,5.0,11.0,29,0.00,,CLR,0.00,VWS V14.01,2013-05-05 20:20:00,
2013-05-05 16:25:00,71.5,37.6,30.11,NNE,32,0.0,8.0,29,0.00,,CLR,0.00,VWS V14.01,2013-05-05 20:25:00,
2013-05-05 16:30:00,71.5,37.6,30.11,SSE,147,0.0,3.0,29,0.00,,CLR,0.00,VWS V14.01,2013-05-05 20:30:00,
2013-05-05 16:35:00,71.6,37.7,30.11,NE,48,8.0,8.0,29,0.00,,CLR,0.00,VWS V14.01,2013-05-05 20:35:00,
2013-05-05 16:40:00,71.3,35.6,30.11,ENE,69,3.0,10.0,27,0.00,,CLR,0.00,VWS V14.01,2013-05-05 20:40:00,
2013-05-05 16:45:00,71.3,35.6,30.11,ENE,71,4.0,4.0,27,0.00,,CLR,0.00,VWS V14.01,2013-05-05 20:45:00,
2013-05-05 16:50:00,71.1,35.5,30.11,East,95,3.0,7.0,27,0.00,,CLR,0.00,VWS V14.01,2013-05-05 20:50:00,
2013-05-05 16:55:00,70.9,36.2,30.11,ESE,113,1.0,5.0,28,0.00,,CLR,0.00,VWS V14.01,2013-05-05 20:55:00,
2013-05-05 17:00:00,70.6,35.0,30.11,ENE,61,0.0,9.0,27,0.00,,CLR,0.00,VWS V14.01,2013-05-05 21:00:00,
2013-05-05 17:05:00,70.3,33.8,30.11,East,97,6.0,10.0,26,0.00,,CLR,0.00,VWS V14.01,2013-05-05 21:05:00,
2013-05-05 17:10:00,69.8,34.3,30.11,East,99,3.0,5.0,27,0.00,,CLR,0.00,VWS V14.01,2013-05-05 21:10:00,
2013-05-05 17:15:00,69.4,34.9,30.11,ENE,76,3.0,3.0,28,0.00,,CLR,0.00,VWS V14.01,2013-05-05 21:15:00,
2013-05-05 17:20:00,69.1,33.7,30.11,NE,37,2.0,5.0,27,0.00,,CLR,0.00,VWS V14.01,2013-05-05 21:20:00,
2013-05-05 17:25:00,68.8,35.3,30.11,East,92,0.0,6.0,29,0.00,,CLR,0.00,VWS V14.01,2013-05-05 21:25:00,
2013-05-05 17:30:00,68.4,34.0,30.11,NE,44,0.0,10.0,28,0.00,,CLR,0.00,VWS V14.01,2013-05-05 21:30:00,
2013-05-05 17:35:00,67.9,32.7,30.11,ESE,113,0.0,8.0,27,0.00,,CLR,0.00,VWS V14.01,2013-05-05 21:35:00,
2013-05-05 17:41:00,67.6,32.5,30.11,ESE,119,3.0,3.0,27,0.00,,CLR,0.00,VWS V14.01,2013-05-05 21:41:00,
2013-05-05 17:46:00,67.3,33.1,30.11,East,97,3.0,12.0,28,0.00,,CLR,0.00,VWS V14.01,2013-05-05 21:46:00,
2013-05-05 17:51:00,67.1,32.9,30.11,East,95,1.0,3.0,28,0.00,,CLR,0.00,VWS V14.01,2013-05-05 21:51:00,
2013-05-05 17:56:00,66.9,32.8,30.11,East,97,0.0,6.0,28,0.00,,CLR,0.00,VWS V14.01,2013-05-05 21:56:00,
2013-05-05 18:01:00,66.8,32.7,30.11,East,82,0.0,6.0,28,0.00,,CLR,0.00,VWS V14.01,2013-05-05 22:01:00,
2013-05-05 18:06:00,66.6,33.4,30.11,ENE,66,8.0,10.0,29,0.00,,CLR,0.00,VWS V14.01,2013-05-05 22:06:00,
2013-05-05 18:11:00,66.4,33.2,30.11,NE,48,3.0,8.0,29,0.00,,CLR,0.00,VWS V14.01,2013-05-05 22:11:00,
2013-05-05 18:16:00,66.3,34.8,30.11,SSE,167,0.0,3.0,31,0.00,,CLR,0.00,VWS V14.01,2013-05-05 22:16:00,
2013-05-05 18:21:00,66.3,34.8,30.11,ESE,103,5.0,5.0,31,0.00,,CLR,0.00,VWS V14.01,2013-05-05 22:21:00,
2013-05-05 18:26:00,66.0,34.5,30.11,East,100,2.0,7.0,31,0.00,,CLR,0.00,VWS V14.01,2013-05-05 22:26:00,
2013-05-05 18:31:00,65.8,35.2,30.11,East,90,5.0,6.0,32,0.00,,CLR,0.00,VWS V14.01,2013-05-05 22:31:00,
2013-05-05 18:36:00,65.8,35.9,30.11,East,97,0.0,4.0,33,0.00,,CLR,0.00,VWS V14.01,2013-05-05 22:36:00,
2013-05-05 18:41:00,65.6,35.8,30.11,East,80,4.0,5.0,33,0.00,,CLR,0.00,VWS V14.01,2013-05-05 22:41:00,
2013-05-05 18:46:00,65.3,35.5,30.11,ESE,110,3.0,7.0,33,0.00,,CLR,0.00,VWS V14.01,2013-05-05 22:46:00,
2013-05-05 18:51:00,65.2,36.2,30.11,East,93,3.0,5.0,34,0.00,,CLR,0.00,VWS V14.01,2013-05-05 22:51:00,
2013-05-05 18:56:00,65.0,36.0,30.11,ESE,113,3.0,4.0,34,0.00,,CLR,0.00,VWS V14.01,2013-05-05 22:56:00,
2013-05-05 19:01:00,64.8,35.8,30.11,ESE,113,0.0,0.0,34,0.00,,CLR,0.00,VWS V14.01,2013-05-05 23:01:00,
2013-05-05 19:06:00,64.7,36.4,30.11,ESE,110,0.0,2.0,35,0.00,,CLR,0.00,VWS V14.01,2013-05-05 23:06:00,
2013-05-05 19:11:00,64.3,36.8,30.11,East,80,4.0,6.0,36,0.00,,CLR,0.00,VWS V14.01,2013-05-05 23:11:00,
2013-05-05 19:17:00,64.0,37.2,30.11,East,83,0.0,5.0,37,0.00,,CLR,0.00,VWS V14.01,2013-05-05 23:17:00,
2013-05-05 19:22:00,63.7,37.6,30.11,NE,48,1.0,5.0,38,0.00,,CLR,0.00,VWS V14.01,2013-05-05 23:22:00,
2013-05-05 19:27:00,63.4,38.0,30.11,NE,52,5.0,7.0,39,0.00,,CLR,0.00,VWS V14.01,2013-05-05 23:27:00,
2013-05-05 19:32:00,63.2,37.9,30.11,ENE,71,2.0,6.0,39,0.00,,CLR,0.00,VWS V14.01,2013-05-05 23:32:00,
2013-05-05 19:37:00,62.7,37.4,30.11,East,85,0.0,2.0,39,0.00,,CLR,0.00,VWS V14.01,2013-05-05 23:37:00,
2013-05-05 19:42:00,62.6,39.2,30.11,East,85,0.0,0.0,42,0.00,,CLR,0.00,VWS V14.01,2013-05-05 23:42:00,
2013-05-05 19:47:00,62.3,38.3,30.12,East,83,0.0,0.0,41,0.00,,CLR,0.00,VWS V14.01,2013-05-05 23:47:00,
2013-05-05 19:52:00,62.1,40.5,30.12,East,83,0.0,0.0,45,0.00,,CLR,0.00,VWS V14.01,2013-05-05 23:52:00,
2013-05-05 19:57:00,61.6,38.9,30.12,East,95,1.0,5.0,43,0.00,,CLR,0.00,VWS V14.01,2013-05-05 23:57:00,
2013-05-05 20:02:00,61.0,39.5,30.12,East,95,0.0,0.0,45,0.00,,CLR,0.00,VWS V14.01,2013-05-06 00:02:00,
2013-05-05 20:07:00,60.5,38.5,30.12,East,95,0.0,2.0,44,0.00,,CLR,0.00,VWS V14.01,2013-05-06 00:07:00,
2013-05-05 20:12:00,60.1,39.8,30.12,East,95,0.0,1.0,47,0.00,,CLR,0.00,VWS V14.01,2013-05-06 00:12:00,
2013-05-05 20:17:00,59.5,39.8,30.12,East,95,0.0,1.0,48,0.00,,CLR,0.00,VWS V14.01,2013-05-06 00:17:00,
2013-05-05 20:22:00,58.9,39.8,30.12,East,95,0.0,0.0,49,0.00,,CLR,0.00,VWS V14.01,2013-05-06 00:22:00,
2013-05-05 20:27:00,58.1,39.1,30.12,East,95,0.0,0.0,49,0.00,,CLR,0.00,VWS V14.01,2013-05-06 00:27:00,
2013-05-05 20:32:00,57.6,38.6,30.14,East,95,0.0,0.0,49,0.00,,CLR,0.00,VWS V14.01,2013-05-06 00:32:00,
2013-05-05 20:37:00,57.2,38.8,30.14,East,95,0.0,2.0,50,0.00,,CLR,0.00,VWS V14.01,2013-05-06 00:37:00,
2013-05-05 20:42:00,56.9,39.5,30.14,SSW,195,0.0,1.0,52,0.00,,CLR,0.00,VWS V14.01,2013-05-06 00:42:00,
2013-05-05 20:48:00,56.6,39.7,30.14,SSW,195,0.0,2.0,53,0.00,,CLR,0.00,VWS V14.01,2013-05-06 00:48:00,
2013-05-05 20:53:00,56.5,41.0,30.14,SSE,158,0.0,8.0,56,0.00,,CLR,0.00,VWS V14.01,2013-05-06 00:53:00,
2013-05-05 20:58:00,56.3,41.3,30.14,SSE,165,0.0,1.0,57,0.00,,CLR,0.00,VWS V14.01,2013-05-06 00:58:00,
2013-05-05 21:03:00,56.2,41.6,30.15,SSE,167,1.0,5.0,58,0.00,,CLR,0.00,VWS V14.01,2013-05-06 01:03:00,
2013-05-05 21:08:00,56.0,41.9,30.15,WSW,248,2.0,3.0,59,0.00,,CLR,0.00,VWS V14.01,2013-05-06 01:08:00,
2013-05-05 21:13:00,55.9,41.8,30.15,SSE,160,0.0,6.0,59,0.00,,CLR,0.00,VWS V14.01,2013-05-06 01:13:00,
2013-05-05 21:18:00,55.6,41.5,30.16,SE,133,0.0,0.0,59,0.00,,CLR,0.00,VWS V14.01,2013-05-06 01:18:00,
2013-05-05 21:23:00,55.3,41.7,30.16,South,181,0.0,5.0,60,0.00,,CLR,0.00,VWS V14.01,2013-05-06 01:23:00,
2013-05-05 21:28:00,55.1,41.5,30.16,South,179,2.0,3.0,60,0.00,,CLR,0.00,VWS V14.01,2013-05-06 01:28:00,
2013-05-05 21:33:00,54.8,41.6,30.16,South,175,0.0,1.0,61,0.00,,CLR,0.00,VWS V14.01,2013-05-06 01:33:00,
2013-05-05 21:38:00,54.5,41.3,30.16,South,189,0.0,0.0,61,0.00,,CLR,0.00,VWS V14.01,2013-05-06 01:38:00,
2013-05-05 21:43:00,54.2,41.5,30.16,SSE,160,0.0,3.0,62,0.00,,CLR,0.00,VWS V14.01,2013-05-06 01:43:00,
2013-05-05 21:48:00,53.8,41.1,30.17,South,174,0.0,4.0,62,0.00,,CLR,0.00,VWS V14.01,2013-05-06 01:48:00,
2013-05-05 21:53:00,53.5,41.2,30.17,South,179,0.0,0.0,63,0.00,,CLR,0.00,VWS V14.01,2013-05-06 01:53:00,
2013-05-05 21:58:00,53.2,41.0,30.17,South,172,0.0,0.0,63,0.00,,CLR,0.00,VWS V14.01,2013-05-06 01:58:00,
2013-05-05 22:03:00,52.9,41.1,30.17,South,172,0.0,1.0,64,0.00,,CLR,0.00,VWS V14.01,2013-05-06 02:03:00,
2013-05-05 22:08:00,52.6,40.8,30.17,South,172,1.0,1.0,64,0.00,,CLR,0.00,VWS V14.01,2013-05-06 02:08:00,
2013-05-05 22:13:00,52.3,40.5,30.17,SSE,165,2.0,3.0,64,0.00,,CLR,0.00,VWS V14.01,2013-05-06 02:13:00,
2013-05-05 22:19:00,52.0,40.6,30.17,South,171,0.0,3.0,65,0.00,,CLR,0.00,VWS V14.01,2013-05-06 02:19:00,
2013-05-05 22:24:00,51.7,40.7,30.17,SSW,205,0.0,0.0,66,0.00,,CLR,0.00,VWS V14.01,2013-05-06 02:24:00,
2013-05-05 22:29:00,51.4,40.4,30.17,SSW,198,0.0,0.0,66,0.00,,CLR,0.00,VWS V14.01,2013-05-06 02:29:00,
2013-05-05 22:34:00,51.1,40.2,30.17,SSW,198,0.0,0.0,66,0.00,,CLR,0.00,VWS V14.01,2013-05-06 02:34:00,
2013-05-05 22:39:00,50.8,40.2,30.17,SSW,198,0.0,2.0,67,0.00,,CLR,0.00,VWS V14.01,2013-05-06 02:39:00,
2013-05-05 22:44:00,50.5,40.0,30.17,SW,230,0.0,2.0,67,0.00,,CLR,0.00,VWS V14.01,2013-05-06 02:44:00,
2013-05-05 22:49:00,50.2,39.7,30.17,SSW,192,0.0,2.0,67,0.00,,CLR,0.00,VWS V14.01,2013-05-06 02:49:00,
2013-05-05 22:54:00,49.9,39.8,30.17,SSW,192,0.0,2.0,68,0.00,,CLR,0.00,VWS V14.01,2013-05-06 02:54:00,
2013-05-05 22:59:00,49.6,39.9,30.17,SSW,192,0.0,2.0,69,0.00,,CLR,0.00,VWS V14.01,2013-05-06 02:59:00,
2013-05-05 23:04:00,49.5,39.8,30.17,SSW,192,0.0,0.0,69,0.00,,CLR,0.00,VWS V14.01,2013-05-06 03:04:00,
2013-05-05 23:09:00,49.2,39.5,30.17,SSW,192,0.0,0.0,69,0.00,,CLR,0.00,VWS V14.01,2013-05-06 03:09:00,
2013-05-05 23:14:00,48.9,39.2,30.17,SSW,192,0.0,0.0,69,0.00,,CLR,0.00,VWS V14.01,2013-05-06 03:14:00,
2013-05-05 23:19:00,48.6,39.3,30.17,SSW,192,0.0,0.0,70,0.00,,CLR,0.00,VWS V14.01,2013-05-06 03:19:00,
2013-05-05 23:24:00,48.2,38.9,30.17,SSW,192,0.0,0.0,70,0.00,,CLR,0.00,VWS V14.01,2013-05-06 03:24:00,
2013-05-05 23:29:00,47.9,39.0,30.17,SSW,192,0.0,0.0,71,0.00,,CLR,0.00,VWS V14.01,2013-05-06 03:29:00,
2013-05-05 23:34:00,47.6,38.7,30.17,SSW,192,0.0,0.0,71,0.00,,CLR,0.00,VWS V14.01,2013-05-06 03:34:00,
2013-05-05 23:39:00,47.3,38.4,30.17,SSW,192,0.0,0.0,71,0.00,,CLR,0.00,VWS V14.01,2013-05-06 03:39:00,
2013-05-05 23:44:00,47.0,38.1,30.17,SSW,192,0.0,0.0,71,0.00,,CLR,0.00,VWS V14.01,2013-05-06 03:44:00,
2013-05-05 23:50:00,46.7,38.2,30.17,SSW,192,0.0,0.0,72,0.00,,CLR,0.00,VWS V14.01,2013-05-06 03:50:00,
2013-05-05 23:55:00,46.4,37.5,30.17,SSW,192,0.0,0.0,71,0.00,,CLR,0.00,VWS V14.01,2013-05-06 03:55:00,